TimeEDT,TemperatureF,Dew PointF,Humidity,Sea Level PressureIn,VisibilityMPH,Wind Direction,Wind SpeedMPH,Gust SpeedMPH,PrecipitationIn,Events,Conditions,WindDirDegrees,DateUTC
12:53 AM,62.1,61.0,96,29.76,6.0,ENE,3.5,-,N/A,,Overcast,60,2011-10-02 04:53:00
1:53 AM,63.0,61.0,93,29.77,8.0,ENE,4.6,-,N/A,,Overcast,70,2011-10-02 05:53:00
2:53 AM,63.0,62.1,97,29.76,9.0,ENE,8.1,-,N/A,,Overcast,60,2011-10-02 06:53:00
3:53 AM,63.0,61.0,93,29.75,9.0,NE,5.8,-,0.00,,Overcast,50,2011-10-02 07:53:00
4:02 AM,62.6,60.8,94,29.75,9.0,NE,5.8,-,N/A,,Overcast,50,2011-10-02 08:02:00
4:11 AM,62.6,62.6,100,29.75,9.0,ENE,3.5,-,N/A,,Overcast,60,2011-10-02 08:11:00
4:38 AM,62.6,60.8,94,29.76,10.0,North,4.6,-,N/A,,Overcast,350,2011-10-02 08:38:00
4:53 AM,63.0,61.0,93,29.76,10.0,NW,4.6,-,N/A,,Overcast,320,2011-10-02 08:53:00
5:53 AM,62.1,60.1,93,29.78,10.0,NE,9.2,-,N/A,,Overcast,50,2011-10-02 09:53:00
6:23 AM,62.6,60.8,94,29.79,10.0,NNE,6.9,-,N/A,,Overcast,30,2011-10-02 10:23:00
6:53 AM,63.0,60.1,90,29.80,10.0,NNW,8.1,-,N/A,,Overcast,330,2011-10-02 10:53:00
7:31 AM,62.6,60.8,94,29.80,10.0,North,4.6,-,0.00,Rain,Light Rain,10,2011-10-02 11:31:00
7:53 AM,63.0,60.1,90,29.80,10.0,North,9.2,-,0.00,,Mostly Cloudy,360,2011-10-02 11:53:00
8:53 AM,63.0,60.1,90,29.79,10.0,NNE,15.0,-,N/A,,Mostly Cloudy,30,2011-10-02 12:53:00
9:53 AM,66.9,60.1,79,29.80,10.0,NNE,15.0,24.2,N/A,,Scattered Clouds,30,2011-10-02 13:53:00
11:44 AM,69.8,60.8,73,29.80,10.0,North,10.4,-,N/A,,Mostly Cloudy,350,2011-10-02 15:44:00
11:53 AM,68.0,60.8,78,29.80,10.0,North,10.4,-,N/A,,Mostly Cloudy,350,2011-10-02 15:53:00
12:46 PM,71.6,62.6,73,29.78,10.0,NNW,9.2,-,N/A,,Scattered Clouds,330,2011-10-02 16:46:00
12:53 PM,70.0,62.1,76,29.78,10.0,NNW,11.5,-,N/A,,Scattered Clouds,330,2011-10-02 16:53:00
1:21 PM,69.8,62.6,78,29.78,10.0,NNW,11.5,-,N/A,,Mostly Cloudy,340,2011-10-02 17:21:00
1:53 PM,69.8,62.6,78,29.78,10.0,NNW,11.5,-,N/A,,Mostly Cloudy,330,2011-10-02 17:53:00
2:53 PM,69.8,60.8,73,29.79,10.0,NW,11.5,-,N/A,,Mostly Cloudy,320,2011-10-02 18:53:00
3:00 PM,69.8,62.6,78,29.79,10.0,NW,11.5,-,N/A,,Mostly Cloudy,320,2011-10-02 19:00:00
3:49 PM,69.8,60.8,73,29.80,10.0,West,10.4,-,N/A,,Scattered Clouds,260,2011-10-02 19:49:00
3:53 PM,69.1,60.1,73,29.81,10.0,West,11.5,-,N/A,,Scattered Clouds,260,2011-10-02 19:53:00
4:53 PM,68.0,60.8,78,29.82,10.0,NNW,4.6,-,N/A,,Partly Cloudy,340,2011-10-02 20:53:00
5:20 PM,66.2,60.8,83,29.83,10.0,WNW,3.5,-,N/A,,Mostly Cloudy,290,2011-10-02 21:20:00
5:27 PM,66.2,59.0,78,29.83,10.0,WSW,12.7,-,N/A,,Scattered Clouds,250,2011-10-02 21:27:00
5:44 PM,64.4,57.2,77,29.84,10.0,WSW,13.8,-,N/A,,Overcast,250,2011-10-02 21:44:00
5:53 PM,64.0,57.0,78,29.85,10.0,West,11.5,-,N/A,,Overcast,260,2011-10-02 21:53:00
6:53 PM,62.1,55.0,78,29.87,10.0,WSW,8.1,-,N/A,,Partly Cloudy,250,2011-10-02 22:53:00
7:16 PM,62.6,55.4,77,29.87,10.0,West,4.6,-,N/A,,Mostly Cloudy,270,2011-10-02 23:16:00
7:29 PM,62.6,53.6,72,29.88,10.0,West,5.8,-,N/A,,Mostly Cloudy,260,2011-10-02 23:29:00
7:53 PM,61.0,52.0,72,29.89,10.0,WSW,6.9,-,N/A,,Clear,250,2011-10-02 23:53:00
9:53 PM,60.1,54.0,80,29.91,10.0,WSW,8.1,-,N/A,,Clear,240,2011-10-03 01:53:00
10:53 PM,59.0,54.0,83,29.92,10.0,Calm,Calm,-,N/A,,Clear,0,2011-10-03 02:53:00
11:53 PM,55.9,53.1,90,29.92,10.0,Calm,Calm,-,N/A,,Mostly Cloudy,0,2011-10-03 03:53:00